IW2LSY-11 Weather Reports


time (UTC)temp
F
wind
direction
speed
knots
gust
knots
rain 1hr
in
rain 24hr
in
rain mn
in
humidity
%
barometer
mb
20260506082013 58 145 0.0 0.0 0.00 0.00 0.00 87 1009.7
20260506081013 57 145 0.0 0.0 0.00 0.00 0.00 88 1009.9
20260506073004 57 145 0.0 0.0 0.00 0.00 0.00 90 1010.6
20260506072004 56 145 0.0 0.0 0.00 0.00 0.00 93 1010.6
20260506071005 56 145 0.0 0.0 0.00 0.00 0.00 94 1010.5
20260506062008 55 145 0.0 0.0 0.00 0.00 0.00 97 1010.9
20260506061008 56 145 0.0 0.0 0.00 0.00 0.00 96 1011.0
20260506051010 55 145 0.0 0.0 0.00 0.00 0.00 95 1010.9
20260506045010 54 145 0.0 0.0 0.00 0.00 0.00 99 1010.7
20260506044010 55 145 0.0 0.0 0.00 0.00 0.00 95 1010.8
20260506043011 54 145 0.0 0.0 0.00 0.00 0.00 10 1010.5
20260506042011 54 145 0.0 0.0 0.00 0.00 0.00 97 1010.5
20260506041011 54 145 0.0 0.0 0.00 0.00 0.00 10 1010.7
20260506040011 53 145 0.0 0.0 0.00 0.00 0.00 10 1010.6
20260506035012 54 145 0.0 0.0 0.00 0.00 0.00 10 1010.7
20260506034013 54 145 0.0 0.0 0.00 0.00 0.00 10 1010.9
20260506033013 54 145 0.0 0.0 0.00 0.00 0.00 10 1011.0
20260506032013 54 145 0.0 0.0 0.00 0.00 0.00 10 1010.9
20260506031013 53 145 0.0 0.0 0.00 0.00 0.00 10 1011.2
20260506030013 55 145 0.0 0.0 0.00 0.00 0.00 95 1011.4
20260506025014 53 145 0.0 0.0 0.00 0.00 0.00 10 1011.5
20260506024015 54 145 0.0 0.0 0.00 0.00 0.00 10 1011.7
20260506023004 54 145 0.0 0.0 0.00 0.00 0.00 10 1011.7
20260506022005 55 145 0.0 0.0 0.00 0.00 0.00 95 1011.9
20260506021005 55 145 0.0 0.0 0.00 0.00 0.00 95 1012.1
20260506020005 55 145 0.0 0.0 0.00 0.00 0.00 94 1012.1
20260506015005 55 145 0.0 0.0 0.00 0.00 0.00 95 1012.0
20260506014005 55 145 0.0 0.0 0.00 0.00 0.00 96 1012.0
20260506013005 55 145 0.0 0.0 0.00 0.00 0.00 97 1011.8
20260506012006 55 145 0.0 0.0 0.00 0.00 0.00 97 1012.3
20260506011006 55 145 0.0 0.0 0.00 0.00 0.00 96 1012.2
20260506010007 55 145 0.0 0.0 0.00 0.00 0.00 95 1012.3
20260506005008 55 145 0.0 0.0 0.00 0.00 0.00 96 1012.5
20260506004008 55 145 0.0 0.0 0.00 0.00 0.00 95 1012.5
20260506003008 55 145 0.0 0.0 0.00 0.00 0.00 94 1012.6
20260506002009 55 145 0.0 0.0 0.00 0.00 0.00 94 1012.6
20260506001007 55 145 0.0 0.0 0.00 0.00 0.00 95 1012.6
20260506000008 55 145 0.0 0.0 0.00 0.00 0.00 93 1012.6
20260505235008 55 145 0.0 0.0 0.00 0.00 0.00 93 1012.7
20260505234009 55 145 0.0 0.0 0.00 0.00 0.00 92 1012.6
20260505233010 55 145 0.0 0.0 0.00 0.00 0.00 92 1012.5
20260505232010 55 145 0.0 0.0 0.00 0.00 0.00 94 1012.7
20260505231009 55 145 0.0 0.0 0.00 0.00 0.00 91 1012.7
20260505230008 54 145 0.0 0.0 0.00 0.00 0.00 97 1012.6
20260505225008 55 180 0.0 0.0 0.00 0.00 0.00 90 1012.7
20260505224009 56 180 0.0 0.0 0.00 0.00 0.00 90 1013.0
20260505223010 55 180 0.0 0.0 0.00 0.00 0.00 93 1013.2
20260505222010 55 180 0.0 0.0 0.00 0.00 0.00 90 1013.2
20260505221010 56 180 0.0 0.0 0.00 0.00 0.00 88 1013.2
20260505220011 55 180 0.0 0.0 0.00 0.00 0.00 91 1013.3
20260505215011 55 180 0.0 0.0 0.00 0.00 0.00 88 1013.4
20260505214012 55 180 0.0 0.0 0.00 0.00 0.00 93 1013.6
20260505213011 55 180 0.0 0.0 0.00 0.00 0.00 93 1013.6
20260505212012 54 180 0.0 0.0 0.00 0.00 0.00 94 1013.6
20260505211012 55 180 0.0 0.0 0.00 0.00 0.00 92 1013.8
20260505210012 55 180 0.0 0.0 0.00 0.00 0.00 90 1013.9
20260505205013 56 180 0.0 0.0 0.00 0.00 0.00 89 1013.8
20260505204013 55 180 0.0 0.0 0.00 0.00 0.00 90 1013.6
20260505203014 55 180 0.0 0.0 0.00 0.00 0.00 92 1013.7
20260505202014 56 180 0.0 0.0 0.00 0.00 0.00 86 1013.7
20260505201014 57 180 0.0 0.0 0.00 0.00 0.00 83 1013.9
20260505200014 57 180 0.0 0.0 0.00 0.00 0.00 85 1013.8
20260505195014 58 180 0.0 0.0 0.00 0.00 0.00 81 1013.7
20260505194014 58 180 0.0 0.0 0.00 0.00 0.00 82 1013.6
20260505193015 59 180 0.0 0.0 0.00 0.00 0.00 77 1013.6
20260505192004 59 180 0.0 0.0 0.00 0.00 0.00 77 1013.5
20260505191005 58 180 0.0 0.0 0.00 0.00 0.00 81 1013.5
20260505190006 58 180 0.0 0.0 0.00 0.00 0.00 79 1013.4
20260505185006 58 180 0.0 0.0 0.00 0.00 0.00 78 1013.3
20260505184006 59 180 0.0 0.0 0.00 0.00 0.00 77 1013.2
20260505183007 59 180 0.0 0.0 0.00 0.00 0.00 74 1013.1
20260505182008 60 180 0.0 0.0 0.00 0.00 0.00 74 1013.0
20260505181009 59 180 0.0 0.0 0.00 0.00 0.00 76 1013.0
20260505180009 60 180 0.0 0.0 0.00 0.00 0.00 74 1012.9
20260505175010 60 180 0.0 0.0 0.00 0.00 0.00 74 1012.9
20260505174010 61 180 0.0 0.0 0.00 0.00 0.00 72 1012.9
20260505173011 61 180 0.0 0.0 0.00 0.00 0.00 69 1012.9
20260505172011 61 180 0.0 0.0 0.00 0.00 0.00 67 1012.8
20260505171011 61 180 0.0 0.0 0.00 0.00 0.00 65 1012.8
20260505170011 61 180 0.0 0.0 0.00 0.00 0.00 65 1012.8
20260505165012 62 180 0.0 0.0 0.00 0.00 0.00 62 1012.8
20260505164013 62 180 0.0 0.0 0.00 0.00 0.00 62 1012.9
20260505163013 62 180 0.0 0.0 0.00 0.00 0.00 61 1013.0
20260505162013 62 180 0.0 0.0 0.00 0.00 0.00 60 1013.0
20260505161013 62 180 0.0 0.0 0.00 0.00 0.00 58 1012.9
20260505153013 63 180 0.0 0.0 0.00 0.00 0.00 52 1013.0
20260505152013 63 180 0.0 0.0 0.00 0.00 0.00 53 1013.1
20260505151014 64 180 0.0 0.0 0.00 0.00 0.00 54 1013.1
20260505125005 62 180 0.0 0.0 0.00 0.00 0.00 59 1013.8
20260505124005 62 180 0.0 0.0 0.00 0.00 0.00 61 1013.8
20260505123006 63 180 0.0 0.0 0.00 0.00 0.00 59 1013.8
20260505122006 64 180 0.0 0.0 0.00 0.00 0.00 57 1013.8
20260505121006 64 180 0.0 0.0 0.00 0.00 0.00 60 1013.9
20260505120007 63 180 0.0 0.0 0.00 0.00 0.00 61 1013.9
20260505115008 62 180 0.0 0.0 0.00 0.00 0.00 67 1014.0
20260505114008 62 180 0.0 0.0 0.00 0.00 0.00 65 1014.0
20260505113008 64 180 0.0 0.0 0.00 0.00 0.00 64 1014.0
20260505112009 63 180 0.0 0.0 0.00 0.00 0.00 65 1014.1
20260505111009 61 180 0.0 0.0 0.00 0.00 0.00 66 1014.1
20260505102011 62 180 0.0 0.0 0.00 0.00 0.00 66 1014.3
20260505101012 62 180 0.0 0.0 0.00 0.00 0.00 66 1014.4
20260505100013 61 180 0.0 0.0 0.00 0.00 0.00 66 1014.3
20260505095014 60 180 0.0 0.0 0.00 0.00 0.00 68 1014.2
20260505094015 60 180 0.0 0.0 0.00 0.00 0.00 68 1014.2
20260505093005 59 180 0.0 0.0 0.00 0.00 0.00 71 1014.1
20260505092005 58 180 0.0 0.0 0.00 0.00 0.00 70 1014.1
20260505091005 57 180 0.0 0.0 0.00 0.00 0.00 73 1014.3
20260505090006 56 180 0.0 0.0 0.00 0.00 0.00 73 1014.3
20260505085006 58 180 0.0 0.0 0.00 0.00 0.00 67 1014.2
20260505084007 57 180 0.0 0.0 0.00 0.00 0.00 71 1014.3
20260505083007 59 180 0.0 0.0 0.00 0.00 0.00 67 1014.2